EW3086 Weather Reports


time (UTC)temp
C
wind
direction
speed
KPH
gust
KPH
rain 1hr
cm
rain 24hr
cm
rain mn
cm
humidity
%
barometer
mb
20260508030005 8 234 0.0 1.6 0.00 0.05 0.05 91 1014.0
20260508025505 8 0 0.0 0.0 0.00 0.05 0.05 91 1014.1
20260508025005 9 224 0.0 1.6 0.03 0.05 0.05 91 1014.1
20260508024505 9 217 0.0 1.6 0.03 0.05 0.05 90 1014.1
20260508024005 9 211 0.0 1.6 0.05 0.05 0.05 90 1014.1
20260508023505 9 211 0.0 1.6 0.05 0.05 0.05 90 1014.2
20260508023026 9 211 0.0 1.6 0.05 0.05 0.05 90 1014.2
20260508022505 9 211 0.0 1.6 0.05 0.05 0.05 89 1014.2
20260508022005 9 210 0.0 1.6 0.05 0.05 0.05 89 1014.2
20260508021505 9 138 0.0 1.6 0.05 0.05 0.05 89 1014.2
20260508021005 9 117 0.0 1.6 0.05 0.05 0.05 88 1014.2
20260508020505 9 108 0.0 1.6 0.05 0.05 0.05 88 1014.1
20260508020005 9 109 0.0 1.6 0.05 0.05 0.05 87 1014.2
20260508015505 10 84 0.0 1.6 0.05 0.05 0.05 86 1014.1
20260508015005 10 84 0.0 4.8 0.03 0.03 0.03 85 1014.1
20260508014504 10 94 0.0 4.8 0.03 0.03 0.03 83 1014.1
20260508014005 10 144 0.0 1.6 0.00 0.00 0.00 81 1014.2
20260508013504 10 109 0.0 1.6 0.00 0.00 0.00 80 1014.1
20260508013005 10 150 0.0 3.2 0.00 0.00 0.00 79 1014.1
20260508012505 10 168 0.0 3.2 0.00 0.00 0.00 79 1014.2
20260508012005 10 215 0.0 1.6 0.00 0.00 0.00 78 1014.2
20260508011525 10 218 0.0 1.6 0.00 0.00 0.00 77 1014.2
20260508011005 10 218 0.0 1.6 0.00 0.00 0.00 77 1014.2
20260508010504 10 182 0.0 1.6 0.00 0.00 0.00 76 1014.2
20260508010005 10 212 0.0 3.2 0.00 0.00 0.00 76 1014.3
20260508005526 10 216 0.0 3.2 0.00 0.00 0.00 76 1014.3
20260508005005 10 96 0.0 1.6 0.00 0.00 0.00 76 1014.3
20260508004504 10 206 0.0 1.6 0.00 0.00 0.00 76 1014.3
20260508004005 10 210 0.0 1.6 0.00 0.00 0.00 76 1014.4
20260508003505 10 213 0.0 3.2 0.00 0.00 0.00 76 1014.4
20260508003026 10 212 0.0 3.2 0.00 0.00 0.00 75 1014.4
20260508002526 10 210 0.0 1.6 0.00 0.00 0.00 76 1014.4
20260508002004 10 210 0.0 1.6 0.00 0.00 0.00 76 1014.4
20260508001504 10 215 0.0 1.6 0.00 0.00 0.00 76 1014.5
20260508001004 10 215 0.0 1.6 0.00 0.00 0.00 76 1014.5
20260508000504 10 212 0.0 3.2 0.00 0.00 0.00 76 1014.5
20260508000026 10 213 0.0 4.8 0.00 0.00 0.00 75 1014.5
20260507235526 10 215 0.0 4.8 0.00 0.00 0.00 76 1014.5
20260507235004 10 216 0.0 3.2 0.00 0.00 0.00 76 1014.6
20260507234505 10 217 0.0 1.6 0.00 0.00 0.00 76 1014.6
20260507234026 10 214 0.0 1.6 0.00 0.00 0.00 77 1014.6
20260507233504 10 210 0.0 1.6 0.00 0.00 0.00 76 1014.5
20260507233004 10 200 0.0 3.2 0.00 0.00 0.00 76 1014.6
20260507232504 10 201 0.0 3.2 0.00 0.00 0.00 76 1014.5
20260507232005 10 215 0.0 1.6 0.00 0.00 0.00 77 1014.6
20260507231504 10 214 0.0 1.6 0.00 0.00 0.00 77 1014.6
20260507231004 10 210 0.0 3.2 0.00 0.00 0.00 77 1014.6
20260507230525 10 209 0.0 3.2 0.00 0.00 0.00 76 1014.6
20260507230008 10 211 0.0 1.6 0.00 0.00 0.00 77 1014.6
20260507225525 10 211 0.0 1.6 0.00 0.00 0.00 77 1014.6
20260507225005 10 207 0.0 1.6 0.00 0.00 0.00 78 1014.6
20260507224525 10 210 0.0 1.6 0.00 0.00 0.00 78 1014.6
20260507224005 10 214 0.0 1.6 0.00 0.00 0.00 79 1014.6
20260507223504 9 218 0.0 1.6 0.00 0.00 0.00 80 1014.7
20260507223004 9 207 0.0 1.6 0.00 0.00 0.00 80 1014.7
20260507222525 9 0 0.0 0.0 0.00 0.00 0.00 80 1014.7
20260507222025 9 0 0.0 0.0 0.00 0.00 0.00 80 1014.7
20260507221504 10 0 0.0 0.0 0.00 0.00 0.00 80 1014.8
20260507221025 10 0 0.0 0.0 0.00 0.00 0.00 80 1014.8
20260507220504 10 0 0.0 0.0 0.00 0.00 0.00 79 1014.8
20260507220004 10 0 0.0 0.0 0.00 0.00 0.00 79 1014.8
20260507215504 10 0 0.0 0.0 0.00 0.00 0.00 80 1014.8
20260507215004 10 0 0.0 0.0 0.00 0.00 0.00 80 1014.8
20260507214504 10 0 0.0 0.0 0.00 0.00 0.00 80 1014.7
20260507214025 10 0 0.0 0.0 0.00 0.00 0.00 81 1014.8
20260507213504 9 0 0.0 0.0 0.00 0.00 0.00 81 1014.9
20260507213004 9 0 0.0 0.0 0.00 0.00 0.00 81 1014.9
20260507212504 9 0 0.0 0.0 0.00 0.00 0.00 81 1014.8
20260507212004 9 0 0.0 0.0 0.00 0.00 0.00 81 1014.9
20260507211504 9 0 0.0 0.0 0.00 0.00 0.00 82 1014.9
20260507211004 9 0 0.0 0.0 0.00 0.00 0.00 82 1014.8
20260507210504 10 0 0.0 0.0 0.00 0.00 0.00 82 1014.7
20260507210005 10 0 0.0 0.0 0.00 0.00 0.00 83 1014.7
20260507205504 10 0 0.0 0.0 0.00 0.00 0.00 84 1014.7
20260507205004 10 0 0.0 0.0 0.00 0.00 0.00 85 1014.7
20260507204504 10 0 0.0 0.0 0.00 0.00 0.00 85 1014.6
20260507204004 10 0 0.0 0.0 0.00 0.00 0.00 85 1014.6
20260507203525 10 0 0.0 0.0 0.00 0.00 0.00 85 1014.6
20260507203025 10 0 0.0 0.0 0.00 0.00 0.00 85 1014.5
20260507202504 10 0 0.0 0.0 0.00 0.00 0.00 84 1014.4
20260507202004 10 0 0.0 0.0 0.00 0.00 0.00 84 1014.4
20260507201504 10 0 0.0 0.0 0.00 0.00 0.00 84 1014.3
20260507201025 10 0 0.0 0.0 0.00 0.00 0.00 83 1014.3
20260507200525 10 0 0.0 0.0 0.00 0.00 0.00 83 1014.2
20260507200004 10 0 0.0 0.0 0.00 0.00 0.00 82 1014.3
20260507195504 10 80 0.0 1.6 0.00 0.00 0.00 82 1014.2
20260507195004 10 80 0.0 1.6 0.00 0.00 0.00 82 1014.2
20260507194504 11 0 0.0 0.0 0.00 0.00 0.00 82 1014.2
20260507194004 11 218 0.0 1.6 0.00 0.00 0.00 82 1014.2
20260507193504 11 214 0.0 1.6 0.00 0.00 0.00 82 1014.2
20260507193004 11 128 0.0 1.6 0.00 0.00 0.00 81 1014.1
20260507192504 11 87 0.0 1.6 0.00 0.00 0.00 81 1014.2
20260507192025 11 0 0.0 0.0 0.00 0.00 0.00 80 1014.1
20260507191504 11 0 0.0 0.0 0.00 0.00 0.00 80 1014.1
20260507191004 11 0 0.0 0.0 0.00 0.00 0.00 80 1014.1
20260507190525 11 0 0.0 0.0 0.00 0.00 0.00 79 1014.1
20260507190005 11 0 0.0 0.0 0.00 0.00 0.00 80 1014.1
20260507185504 11 0 0.0 0.0 0.00 0.00 0.00 80 1014.1
20260507185004 11 0 0.0 0.0 0.00 0.00 0.00 81 1014.0
20260507184504 11 0 0.0 0.0 0.00 0.00 0.00 80 1014.0
20260507184004 11 0 0.0 0.0 0.00 0.00 0.00 80 1014.1
20260507183504 11 0 0.0 0.0 0.00 0.00 0.00 80 1014.2
20260507183004 11 87 0.0 1.6 0.00 0.00 0.00 80 1014.2
20260507182504 11 87 0.0 1.6 0.00 0.00 0.00 80 1014.1
20260507182004 11 0 0.0 0.0 0.00 0.00 0.00 80 1014.1
20260507181504 11 0 0.0 0.0 0.00 0.00 0.00 81 1014.1
20260507181004 11 0 0.0 0.0 0.00 0.00 0.00 81 1014.1
20260507180504 11 0 0.0 0.0 0.00 0.00 0.00 81 1014.1
20260507180004 11 0 0.0 0.0 0.00 0.00 0.00 81 1014.1
20260507175503 11 87 0.0 1.6 0.00 0.00 0.00 82 1014.1
20260507175004 11 87 0.0 1.6 0.00 0.00 0.00 82 1014.0
20260507174503 11 87 0.0 1.6 0.00 0.00 0.00 82 1014.1
20260507174004 11 87 0.0 1.6 0.00 0.00 0.00 82 1014.1
20260507173504 11 91 0.0 1.6 0.00 0.00 0.00 82 1014.1
20260507173004 11 88 0.0 1.6 0.00 0.00 0.00 81 1014.1
20260507172503 12 83 0.0 1.6 0.00 0.00 0.00 81 1014.1
20260507172003 12 86 0.0 1.6 0.00 0.00 0.00 80 1014.1
20260507171503 12 87 0.0 1.6 0.00 0.00 0.00 81 1014.1
20260507171004 12 88 0.0 1.6 0.00 0.00 0.00 80 1014.1
20260507170525 12 90 0.0 1.6 0.00 0.00 0.00 80 1014.1
20260507170004 12 91 0.0 1.6 0.00 0.00 0.00 79 1014.2
20260507165504 12 82 0.0 1.6 0.00 0.00 0.00 78 1014.1
20260507165004 12 83 0.0 1.6 0.00 0.00 0.00 79 1014.2
20260507164503 12 87 0.0 1.6 0.00 0.00 0.00 79 1014.2
20260507164024 12 112 0.0 1.6 0.00 0.00 0.00 80 1014.2
20260507163503 12 101 0.0 1.6 0.00 0.00 0.00 80 1014.2
20260507163003 12 90 0.0 1.6 0.00 0.00 0.00 80 1014.2
20260507162524 12 83 0.0 1.6 0.00 0.00 0.00 81 1014.1
20260507162003 12 92 0.0 1.6 0.00 0.00 0.00 81 1014.2
20260507161503 12 89 0.0 1.6 0.00 0.00 0.00 82 1014.2
20260507161003 11 83 0.0 1.6 0.00 0.00 0.00 82 1014.2
20260507160504 12 75 0.0 1.6 0.00 0.00 0.00 82 1014.2
20260507160004 12 75 0.0 1.6 0.00 0.00 0.00 83 1014.2
20260507155503 12 89 0.0 1.6 0.00 0.00 0.00 83 1014.2
20260507155003 12 71 0.0 1.6 0.00 0.00 0.00 83 1014.3
20260507154504 12 73 0.0 1.6 0.00 0.00 0.00 82 1014.2
20260507154025 12 97 0.0 1.6 0.00 0.00 0.00 81 1014.2
20260507153504 12 98 0.0 1.6 0.00 0.00 0.00 79 1014.2
20260507153004 12 98 0.0 1.6 0.00 0.00 0.00 79 1014.2
20260507152524 12 96 0.0 1.6 0.00 0.00 0.00 79 1014.3
20260507152004 12 61 0.0 1.6 0.00 0.00 0.00 78 1014.2
20260507151504 12 45 0.0 1.6 0.00 0.00 0.00 78 1014.3
20260507151003 12 81 0.0 1.6 0.00 0.00 0.00 77 1014.3
20260507150524 12 86 0.0 1.6 0.00 0.00 0.00 76 1014.3
20260507150024 12 106 0.0 1.6 0.00 0.00 0.00 80 1014.2
20260507145503 12 104 0.0 1.6 0.00 0.00 0.00 81 1014.3
20260507145024 12 98 0.0 1.6 0.00 0.00 0.00 81 1014.2
20260507144503 12 95 0.0 1.6 0.00 0.00 0.00 81 1014.3
20260507144003 12 100 0.0 1.6 0.00 0.00 0.00 80 1014.4
20260507143503 12 104 0.0 1.6 0.00 0.00 0.00 83 1014.5
20260507143004 12 97 0.0 1.6 0.00 0.00 0.00 83 1014.4
20260507142503 11 81 0.0 3.2 0.00 0.00 0.00 83 1014.5
20260507142003 11 78 0.0 3.2 0.00 0.00 0.00 83 1014.6
20260507141527 11 84 0.0 3.2 0.00 0.00 0.00 83 1014.7
20260507141007 11 92 0.0 1.6 0.00 0.00 0.00 82 1014.8
20260507140506 12 90 0.0 3.2 0.00 0.00 0.00 83 1014.8
20260507140006 12 90 0.0 3.2 0.00 0.00 0.00 82 1014.7
20260507135507 12 93 0.0 1.6 0.00 0.00 0.00 82 1014.7
20260507135028 12 93 0.0 1.6 0.00 0.00 0.00 81 1014.6
20260507134506 12 90 0.0 3.2 0.00 0.00 0.00 81 1014.6
20260507134006 12 91 0.0 3.2 0.00 0.00 0.00 80 1014.6
20260507133507 12 96 0.0 3.2 0.00 0.00 0.00 78 1014.6
20260507133007 12 99 0.0 4.8 0.00 0.00 0.00 77 1014.5
20260507132527 12 95 0.0 4.8 0.00 0.00 0.00 76 1014.5
20260507132007 12 118 0.0 1.6 0.00 0.00 0.00 75 1014.5
20260507131527 13 110 0.0 1.6 0.00 0.00 0.00 74 1014.5
20260507131007 13 97 0.0 3.2 0.00 0.00 0.00 73 1014.5
20260507130512 13 91 1.6 4.8 0.00 0.00 0.00 73 1014.5
20260507130028 13 94 1.6 4.8 0.00 0.00 0.00 72 1014.5
20260507125506 13 95 0.0 3.2 0.00 0.00 0.00 70 1014.4
20260507125006 14 97 0.0 3.2 0.00 0.00 0.00 70 1014.5
20260507124506 14 121 0.0 3.2 0.00 0.00 0.00 69 1014.4
20260507124007 14 114 0.0 3.2 0.00 0.00 0.00 67 1014.4
20260507123506 15 96 0.0 4.8 0.00 0.00 0.00 67 1014.4
20260507123006 15 89 1.6 4.8 0.00 0.00 0.00 67 1014.4
20260507122506 16 98 1.6 4.8 0.00 0.00 0.00 66 1014.4
20260507122006 16 123 1.6 4.8 0.00 0.00 0.00 56 1014.4
20260507121506 16 172 1.6 4.8 0.00 0.00 0.00 54 1014.3
20260507121027 16 164 1.6 11.3 0.00 0.00 0.00 55 1014.4
20260507120506 16 174 1.6 11.3 0.00 0.00 0.00 56 1014.3
20260507120027 16 160 1.6 6.4 0.00 0.00 0.00 56 1014.4
20260507115506 15 144 1.6 6.4 0.00 0.00 0.00 55 1014.4
20260507115007 16 152 1.6 4.8 0.00 0.00 0.00 60 1014.4
20260507114527 15 137 1.6 4.8 0.00 0.00 0.00 60 1014.3
20260507114006 15 121 1.6 6.4 0.00 0.00 0.00 60 1014.4
20260507113506 15 149 1.6 6.4 0.00 0.00 0.00 58 1014.4
20260507113006 16 180 1.6 6.4 0.00 0.00 0.00 60 1014.4
20260507112506 15 175 1.6 8.0 0.00 0.00 0.00 58 1014.4
20260507112006 15 153 1.6 8.0 0.00 0.00 0.00 58 1014.4
20260507111507 15 157 1.6 6.4 0.00 0.00 0.00 58 1014.4
20260507111006 16 168 1.6 6.4 0.00 0.00 0.00 58 1014.5
20260507110527 16 185 1.6 6.4 0.00 0.00 0.00 57 1014.4
20260507110006 15 155 1.6 9.7 0.00 0.00 0.00 57 1014.4
20260507105506 15 120 1.6 9.7 0.00 0.00 0.00 59 1014.4
20260507105006 16 128 1.6 9.7 0.00 0.00 0.00 58 1014.4
20260507104507 16 197 0.0 6.4 0.00 0.00 0.00 60 1014.4
20260507104027 16 168 1.6 6.4 0.00 0.00 0.00 59 1014.4
20260507103506 16 166 1.6 6.4 0.00 0.00 0.00 58 1014.4
20260507103006 16 175 3.2 8.0 0.00 0.00 0.00 57 1014.5
20260507102506 16 153 3.2 9.7 0.00 0.00 0.00 57 1014.5
20260507102007 16 167 1.6 9.7 0.00 0.00 0.00 57 1014.5
20260507101507 16 177 0.0 4.8 0.00 0.00 0.00 58 1014.5
20260507101006 16 134 1.6 4.8 0.00 0.00 0.00 60 1014.5
20260507100506 16 187 3.2 8.0 0.00 0.00 0.00 59 1014.5
20260507100006 16 181 3.2 14.5 0.00 0.00 0.00 57 1014.5
20260507095506 16 161 1.6 14.5 0.00 0.00 0.00 59 1014.4
20260507095006 16 190 1.6 6.4 0.00 0.00 0.00 60 1014.4
20260507094506 16 200 1.6 11.3 0.00 0.00 0.00 61 1014.4
20260507094006 16 182 1.6 11.3 0.00 0.00 0.00 60 1014.4
20260507093527 16 159 1.6 11.3 0.00 0.00 0.00 61 1014.4
20260507093006 16 171 1.6 11.3 0.00 0.00 0.00 63 1014.4
20260507092506 16 180 1.6 6.4 0.00 0.00 0.00 64 1014.3
20260507092027 15 160 1.6 6.4 0.00 0.00 0.00 64 1014.3
20260507091506 15 150 1.6 6.4 0.00 0.00 0.00 64 1014.3
20260507091006 15 167 1.6 9.7 0.00 0.00 0.00 65 1014.2
20260507090506 15 163 1.6 9.7 0.00 0.00 0.00 65 1014.3
20260507090006 15 167 1.6 9.7 0.00 0.00 0.00 65 1014.2
20260507085506 15 180 1.6 9.7 0.00 0.00 0.00 66 1014.3
20260507085006 15 174 1.6 11.3 0.00 0.00 0.00 66 1014.3
20260507084506 15 177 3.2 11.3 0.00 0.00 0.00 66 1014.3
20260507084006 15 181 3.2 9.7 0.00 0.00 0.00 66 1014.3
20260507083506 15 167 1.6 9.7 0.00 0.00 0.00 67 1014.3
20260507083027 15 193 1.6 11.3 0.00 0.00 0.00 65 1014.2
20260507082527 14 187 1.6 11.3 0.00 0.00 0.00 69 1014.3
20260507082005 14 184 1.6 8.0 0.00 0.00 0.00 67 1014.3
20260507081505 14 186 3.2 8.0 0.00 0.00 0.00 69 1014.3
20260507081006 14 185 1.6 8.0 0.00 0.00 0.00 67 1014.3
20260507080505 13 200 1.6 6.4 0.00 0.00 0.00 70 1014.2
20260507080006 13 202 3.2 11.3 0.00 0.00 0.00 71 1014.3
20260507075506 13 192 3.2 17.7 0.00 0.00 0.00 71 1014.3
20260507075006 13 188 3.2 17.7 0.00 0.00 0.00 71 1014.2
20260507074505 13 186 3.2 9.7 0.00 0.00 0.00 72 1014.2
20260507074005 12 189 3.2 8.0 0.00 0.00 0.00 73 1014.2
20260507073506 12 185 3.2 8.0 0.00 0.00 0.00 73 1014.2
20260507073006 12 187 3.2 9.7 0.00 0.00 0.00 73 1014.2
20260507072506 12 181 3.2 9.7 0.00 0.00 0.00 74 1014.2
20260507072006 12 150 1.6 8.0 0.00 0.00 0.00 76 1014.2
20260507071505 11 150 1.6 8.0 0.00 0.00 0.00 78 1014.2
20260507071006 11 153 1.6 9.7 0.00 0.00 0.00 80 1014.1
20260507070505 11 155 1.6 9.7 0.00 0.00 0.00 81 1014.2
20260507070010 10 158 0.0 4.8 0.00 0.00 0.00 82 1014.1
20260507065505 10 207 1.6 3.2 0.00 0.00 0.00 84 1014.1
20260507065005 10 188 1.6 3.2 0.00 0.00 0.00 84 1014.0
20260507064506 10 84 0.0 3.2 0.00 0.00 0.00 85 1014.0
20260507064006 10 73 0.0 3.2 0.00 0.00 0.00 85 1014.0
20260507063526 10 77 0.0 3.2 0.00 0.00 0.00 85 1014.0
20260507063006 10 84 0.0 4.8 0.00 0.00 0.00 85 1014.0
20260507062506 10 82 1.6 4.8 0.00 0.00 0.00 84 1014.0
20260507062006 10 83 0.0 4.8 0.00 0.00 0.00 84 1014.1
20260507061526 9 83 0.0 6.4 0.00 0.00 0.00 84 1014.1
20260507061005 9 81 1.6 6.4 0.00 0.00 0.00 84 1014.1
20260507060505 9 79 1.6 4.8 0.00 0.00 0.00 83 1014.1
20260507060005 9 82 0.0 3.2 0.00 0.00 0.00 84 1014.0
20260507055505 9 87 0.0 4.8 0.00 0.00 0.00 84 1014.0
20260507055006 9 83 1.6 4.8 0.00 0.00 0.00 84 1014.0
20260507054505 8 85 1.6 3.2 0.00 0.00 0.00 84 1014.1
20260507054026 8 86 1.6 6.4 0.00 0.00 0.00 84 1014.1
20260507053506 8 83 1.6 6.4 0.00 0.00 0.00 84 1014.1
20260507053026 8 81 0.0 6.4 0.00 0.00 0.00 84 1014.0
20260507052505 8 70 0.0 1.6 0.00 0.00 0.00 84 1014.1
20260507052005 8 89 0.0 3.2 0.00 0.00 0.00 84 1014.1
20260507051505 8 103 0.0 3.2 0.00 0.00 0.00 84 1014.0
20260507051005 8 212 0.0 1.6 0.00 0.00 0.00 84 1014.0
20260507050526 8 199 0.0 1.6 0.00 0.00 0.00 83 1014.0
20260507050006 8 203 0.0 3.2 0.00 0.00 0.00 83 1014.0
20260507045505 8 208 0.0 3.2 0.00 0.00 0.00 82 1013.9
20260507045005 8 208 0.0 1.6 0.00 0.00 0.00 82 1013.9
20260507044526 8 209 0.0 1.6 0.00 0.00 0.00 82 1013.9
20260507044005 8 211 0.0 1.6 0.00 0.00 0.00 81 1013.8
20260507043505 8 213 0.0 1.6 0.00 0.00 0.00 81 1013.8
20260507043005 8 215 0.0 3.2 0.00 0.00 0.00 81 1013.8
20260507042527 9 213 1.6 3.2 0.00 0.00 0.00 80 1013.8
20260507042005 8 208 0.0 3.2 0.00 0.00 0.00 81 1013.8
20260507041505 8 204 0.0 3.2 0.00 0.00 0.00 81 1013.8
20260507041005 8 211 0.0 3.2 0.00 0.00 0.00 81 1013.8
20260507040505 8 212 0.0 3.2 0.00 0.00 0.00 81 1013.8
20260507040005 8 212 0.0 1.6 0.00 0.00 0.00 81 1013.8
20260507035505 8 212 0.0 1.6 0.00 0.00 0.00 81 1013.8
20260507035005 8 213 0.0 1.6 0.00 0.00 0.00 81 1013.8
20260507034505 8 212 0.0 1.6 0.00 0.00 0.00 82 1013.8
20260507034005 8 212 0.0 1.6 0.00 0.00 0.00 82 1013.8
20260507033505 8 211 0.0 1.6 0.00 0.00 0.00 82 1013.8
20260507033026 8 209 0.0 1.6 0.00 0.00 0.00 82 1013.8
20260507032505 8 209 0.0 1.6 0.00 0.00 0.00 82 1013.7
20260507032005 8 90 0.0 3.2 0.00 0.00 0.00 81 1013.7
20260507031505 8 175 1.6 3.2 0.00 0.00 0.00 82 1013.8
20260507031005 8 203 1.6 3.2 0.00 0.00 0.00 82 1013.8
20260507030505 8 202 0.0 3.2 0.00 0.00 0.00 82 1013.8